Time,TemperatureF,DewpointF,PressureIn,WindDirection,WindDirectionDegrees,WindSpeedMPH,WindSpeedGustMPH,Humidity,HourlyPrecipIn,Conditions,Clouds,dailyrainin,SoftwareType,DateUTC
2013-06-14 00:05:00,77.6,69.4,29.44,ENE,61,1.0,1.0,76,0.00,,,0.00,Wunderground v.1.15,2013-06-14 05:05:00,
2013-06-14 00:15:00,77.4,70.0,29.44,ENE,60,1.0,1.0,78,0.00,,,0.00,Wunderground v.1.15,2013-06-14 05:15:00,
2013-06-14 00:25:00,77.1,69.7,29.44,ENE,60,0.0,8.0,78,0.00,,,0.00,Wunderground v.1.15,2013-06-14 05:25:00,
2013-06-14 00:35:00,76.9,69.5,29.44,ENE,60,1.0,8.0,78,0.00,,,0.00,Wunderground v.1.15,2013-06-14 05:35:00,
2013-06-14 00:45:00,76.7,69.7,29.44,ENE,68,2.0,2.0,79,0.00,,,0.00,Wunderground v.1.15,2013-06-14 05:45:00,
2013-06-14 00:50:00,76.6,69.6,29.44,ENE,65,2.0,8.0,79,0.00,,,0.00,Wunderground v.1.15,2013-06-14 05:50:00,
2013-06-14 01:05:00,76.2,69.6,29.43,NE,50,1.0,8.0,80,0.00,,,0.00,Wunderground v.1.15,2013-06-14 06:05:00,
2013-06-14 01:15:00,76.1,69.5,29.44,ENE,73,2.0,2.0,80,0.00,,,0.00,Wunderground v.1.15,2013-06-14 06:15:00,
2013-06-14 01:20:00,76.0,69.4,29.44,NE,46,2.0,3.0,80,0.00,,,0.00,Wunderground v.1.15,2013-06-14 06:20:00,
2013-06-14 01:30:00,75.9,69.6,29.44,ENE,75,2.0,8.0,81,0.00,,,0.00,Wunderground v.1.15,2013-06-14 06:30:00,
2013-06-14 01:40:00,75.5,69.6,29.43,ENE,70,1.0,8.0,82,0.00,,,0.00,Wunderground v.1.15,2013-06-14 06:40:00,
2013-06-14 01:50:00,75.1,69.6,29.43,ENE,64,0.0,8.0,83,0.00,,,0.00,Wunderground v.1.15,2013-06-14 06:50:00,
2013-06-14 02:05:00,75.1,69.6,29.43,ENE,63,0.0,8.0,83,0.00,,,0.00,Wunderground v.1.15,2013-06-14 07:05:00,
2013-06-14 02:15:00,74.8,69.3,29.43,ENE,63,0.0,8.0,83,0.00,,,0.00,Wunderground v.1.15,2013-06-14 07:15:00,
2013-06-14 02:25:00,74.5,70.0,29.43,ENE,64,0.0,8.0,86,0.00,,,0.00,Wunderground v.1.15,2013-06-14 07:25:00,
2013-06-14 02:35:00,74.0,69.5,29.42,ENE,64,0.0,8.0,86,0.00,,,0.00,Wunderground v.1.15,2013-06-14 07:35:00,
2013-06-14 02:45:00,73.3,68.9,29.42,ENE,64,0.0,8.0,86,0.00,,,0.00,Wunderground v.1.15,2013-06-14 07:45:00,
2013-06-14 02:55:00,-999.9,-99.9,29.42,North,32767,-999.0,8.0,255,-99.99,,,0.00,Wunderground v.1.15,2013-06-14 07:55:00,
2013-06-14 03:01:00,-999.9,-99.9,29.42,North,32767,-999.0,8.0,255,-99.99,,,0.00,Wunderground v.1.15,2013-06-14 08:01:00,
2013-06-14 03:10:00,-999.9,-99.9,29.42,North,32767,-999.0,8.0,255,-99.99,,,0.00,Wunderground v.1.15,2013-06-14 08:10:00,
2013-06-14 03:20:00,-999.9,-99.9,29.42,North,32767,-999.0,8.0,255,-99.99,,,0.00,Wunderground v.1.15,2013-06-14 08:20:00,
2013-06-14 03:25:00,-999.9,-99.9,29.42,North,32767,-999.0,8.0,255,-99.99,,,0.00,Wunderground v.1.15,2013-06-14 08:25:00,
2013-06-14 03:35:00,-999.9,-99.9,29.41,North,32767,-999.0,8.0,255,-99.99,,,0.00,Wunderground v.1.15,2013-06-14 08:35:00,
2013-06-14 03:45:00,-999.9,-99.9,29.42,North,32767,-999.0,8.0,255,-99.99,,,0.00,Wunderground v.1.15,2013-06-14 08:45:00,
2013-06-14 03:55:00,-999.9,-99.9,29.42,North,32767,-999.0,8.0,255,-99.99,,,0.00,Wunderground v.1.15,2013-06-14 08:55:00,
2013-06-14 04:05:00,-999.9,-99.9,29.41,North,32767,-999.0,8.0,255,-99.99,,,0.00,Wunderground v.1.15,2013-06-14 09:05:00,
2013-06-14 04:15:00,-999.9,-99.9,29.42,North,32767,-999.0,8.0,255,-99.99,,,0.00,Wunderground v.1.15,2013-06-14 09:15:00,
2013-06-14 04:25:00,-999.9,-99.9,29.41,North,32767,-999.0,8.0,255,-99.99,,,0.00,Wunderground v.1.15,2013-06-14 09:25:00,
2013-06-14 04:35:00,-999.9,-99.9,29.41,North,32767,-999.0,8.0,255,-99.99,,,0.00,Wunderground v.1.15,2013-06-14 09:35:00,
2013-06-14 04:45:00,-999.9,-99.9,29.41,North,32767,-999.0,8.0,255,-99.99,,,0.00,Wunderground v.1.15,2013-06-14 09:45:00,
2013-06-14 04:55:00,-999.9,-99.9,29.42,North,32767,-999.0,8.0,255,-99.99,,,0.00,Wunderground v.1.15,2013-06-14 09:55:00,
2013-06-14 05:00:00,-999.9,-99.9,29.42,North,32767,-999.0,8.0,255,-99.99,,,0.00,Wunderground v.1.15,2013-06-14 10:00:00,
2013-06-14 05:10:00,-999.9,-99.9,29.42,North,32767,-999.0,8.0,255,-99.99,,,0.00,Wunderground v.1.15,2013-06-14 10:10:00,
2013-06-14 05:20:00,-999.9,-99.9,29.42,North,32767,-999.0,8.0,255,-99.99,,,0.00,Wunderground v.1.15,2013-06-14 10:20:00,
2013-06-14 05:30:00,-999.9,-99.9,29.43,North,32767,-999.0,8.0,255,-99.99,,,0.00,Wunderground v.1.15,2013-06-14 10:30:00,
2013-06-14 05:35:00,-999.9,-99.9,29.43,North,32767,-999.0,8.0,255,-99.99,,,0.00,Wunderground v.1.15,2013-06-14 10:35:00,
2013-06-14 05:45:00,-999.9,-99.9,29.43,North,32767,-999.0,8.0,255,-99.99,,,0.00,Wunderground v.1.15,2013-06-14 10:45:00,
2013-06-14 05:55:00,-999.9,-99.9,29.43,North,32767,-999.0,8.0,255,-99.99,,,0.00,Wunderground v.1.15,2013-06-14 10:55:00,
2013-06-14 06:00:00,-999.9,-99.9,29.43,North,32767,-999.0,8.0,255,-99.99,,,0.00,Wunderground v.1.15,2013-06-14 11:00:00,
2013-06-14 06:10:00,-999.9,-99.9,29.43,North,32767,-999.0,8.0,255,-99.99,,,0.00,Wunderground v.1.15,2013-06-14 11:10:00,
2013-06-14 06:20:00,-999.9,-99.9,29.43,North,32767,-999.0,8.0,255,-99.99,,,0.00,Wunderground v.1.15,2013-06-14 11:20:00,
2013-06-14 06:30:00,-999.9,-99.9,29.43,North,32767,-999.0,8.0,255,-99.99,,,0.00,Wunderground v.1.15,2013-06-14 11:30:00,
2013-06-14 06:40:00,-999.9,-99.9,29.43,North,32767,-999.0,8.0,255,-99.99,,,0.00,Wunderground v.1.15,2013-06-14 11:40:00,
2013-06-14 06:50:00,-999.9,-99.9,29.43,North,32767,-999.0,8.0,255,-99.99,,,0.00,Wunderground v.1.15,2013-06-14 11:50:00,
2013-06-14 07:00:00,75.4,70.2,29.44,ESE,114,4.0,8.0,84,0.00,,,0.00,Wunderground v.1.15,2013-06-14 12:00:00,
2013-06-14 07:10:00,75.6,70.1,29.45,SE,125,4.0,4.0,83,0.00,,,0.00,Wunderground v.1.15,2013-06-14 12:10:00,
2013-06-14 07:20:00,76.0,70.5,29.45,SE,132,5.0,5.0,83,0.00,,,0.00,Wunderground v.1.15,2013-06-14 12:20:00,
2013-06-14 07:30:00,76.4,70.5,29.46,SE,143,5.0,5.0,82,0.00,,,0.00,Wunderground v.1.15,2013-06-14 12:30:00,
2013-06-14 07:40:00,76.9,70.6,29.46,South,174,4.0,8.0,81,0.00,,,0.00,Wunderground v.1.15,2013-06-14 12:40:00,
2013-06-14 07:45:00,76.9,70.3,29.45,SSE,159,5.0,8.0,80,0.00,,,0.00,Wunderground v.1.15,2013-06-14 12:45:00,
2013-06-14 07:55:00,77.2,70.9,29.46,ESE,122,6.0,12.0,81,0.00,,,0.00,Wunderground v.1.15,2013-06-14 12:55:00,
2013-06-14 08:00:00,77.4,70.7,29.46,South,179,6.0,6.0,80,0.00,,,0.00,Wunderground v.1.15,2013-06-14 13:00:00,
2013-06-14 08:10:00,77.8,70.8,29.46,SE,141,7.0,7.0,79,0.00,,,0.00,Wunderground v.1.15,2013-06-14 13:10:00,
2013-06-14 08:15:00,78.2,70.8,29.46,SE,125,7.0,8.0,78,0.00,,,0.00,Wunderground v.1.15,2013-06-14 13:15:00,
2013-06-14 08:25:00,78.8,71.4,29.46,East,87,6.0,11.0,78,0.00,,,0.00,Wunderground v.1.15,2013-06-14 13:25:00,
2013-06-14 08:35:00,79.2,71.0,29.47,SE,131,8.0,10.0,76,0.00,,,0.00,Wunderground v.1.15,2013-06-14 13:35:00,
2013-06-14 08:45:00,79.6,71.4,29.47,SE,138,8.0,10.0,76,0.00,,,0.00,Wunderground v.1.15,2013-06-14 13:45:00,
2013-06-14 08:55:00,80.0,71.8,29.47,SE,130,8.0,9.0,76,0.00,,,0.00,Wunderground v.1.15,2013-06-14 13:55:00,
2013-06-14 09:01:00,80.5,72.2,29.47,SE,138,7.0,7.0,76,0.00,,,0.00,Wunderground v.1.15,2013-06-14 14:01:00,
2013-06-14 09:10:00,81.1,72.4,29.47,SW,214,6.0,8.0,75,0.00,,,0.00,Wunderground v.1.15,2013-06-14 14:10:00,
2013-06-14 09:20:00,81.4,72.3,29.47,SE,140,8.0,10.0,74,0.00,,,0.00,Wunderground v.1.15,2013-06-14 14:20:00,
2013-06-14 09:30:00,81.4,71.9,29.47,SE,137,9.0,13.0,73,0.00,,,0.00,Wunderground v.1.15,2013-06-14 14:30:00,
2013-06-14 09:40:00,81.4,72.3,29.47,SSE,158,9.0,10.0,74,0.00,,,0.00,Wunderground v.1.15,2013-06-14 14:40:00,
2013-06-14 09:50:00,82.4,72.9,29.47,SE,131,6.0,10.0,73,0.00,,,0.00,Wunderground v.1.15,2013-06-14 14:50:00,
2013-06-14 10:05:00,82.8,73.3,29.47,SSE,150,8.0,8.0,73,0.00,,,0.00,Wunderground v.1.15,2013-06-14 15:05:00,
2013-06-14 10:15:00,83.5,73.5,29.47,SE,138,6.0,8.0,72,0.00,,,0.00,Wunderground v.1.15,2013-06-14 15:15:00,
2013-06-14 10:20:00,83.7,73.7,29.48,SSE,166,6.0,8.0,72,0.00,,,0.00,Wunderground v.1.15,2013-06-14 15:20:00,
2013-06-14 10:30:00,84.3,73.9,29.48,South,173,6.0,8.0,71,0.00,,,0.00,Wunderground v.1.15,2013-06-14 15:30:00,
2013-06-14 10:40:00,85.2,74.7,29.48,SE,134,6.0,8.0,71,0.00,,,0.00,Wunderground v.1.15,2013-06-14 15:40:00,
2013-06-14 10:50:00,85.3,74.4,29.47,SW,233,7.0,9.0,70,0.00,,,0.00,Wunderground v.1.15,2013-06-14 15:50:00,
2013-06-14 11:05:00,85.6,74.7,29.47,SSE,155,7.0,7.0,70,0.00,,,0.00,Wunderground v.1.15,2013-06-14 16:05:00,
2013-06-14 11:15:00,85.8,74.9,29.47,SE,142,8.0,8.0,70,0.00,,,0.00,Wunderground v.1.15,2013-06-14 16:15:00,
2013-06-14 11:20:00,86.0,75.1,29.47,SSE,167,8.0,8.0,70,0.00,,,0.00,Wunderground v.1.15,2013-06-14 16:20:00,
2013-06-14 11:30:00,86.3,74.9,29.46,SE,146,8.0,11.0,69,0.00,,,0.00,Wunderground v.1.15,2013-06-14 16:30:00,
2013-06-14 11:40:00,87.4,76.0,29.47,SSE,156,7.0,8.0,69,0.00,,,0.00,Wunderground v.1.15,2013-06-14 16:40:00,
2013-06-14 11:50:00,87.7,75.4,29.46,SE,131,7.0,8.0,67,0.00,,,0.00,Wunderground v.1.15,2013-06-14 16:50:00,
2013-06-14 12:05:00,88.2,75.9,29.46,SE,129,7.0,10.0,67,0.00,,,0.00,Wunderground v.1.15,2013-06-14 17:05:00,
2013-06-14 12:15:00,88.4,76.0,29.45,ESE,111,8.0,8.0,67,0.00,,,0.00,Wunderground v.1.15,2013-06-14 17:15:00,
2013-06-14 12:20:00,88.3,75.9,29.45,East,101,7.0,9.0,67,0.00,,,0.00,Wunderground v.1.15,2013-06-14 17:20:00,
2013-06-14 12:30:00,88.3,75.9,29.45,ESE,107,8.0,12.0,67,0.00,,,0.00,Wunderground v.1.15,2013-06-14 17:30:00,
2013-06-14 12:40:00,89.7,75.9,29.45,SE,146,6.0,8.0,64,0.00,,,0.00,Wunderground v.1.15,2013-06-14 17:40:00,
2013-06-14 12:50:00,89.4,75.6,29.44,SE,129,8.0,10.0,64,0.00,,,0.00,Wunderground v.1.15,2013-06-14 17:50:00,
2013-06-14 13:05:00,90.0,76.2,29.44,SE,139,8.0,8.0,64,0.00,,,0.00,Wunderground v.1.15,2013-06-14 18:05:00,
2013-06-14 13:15:00,90.4,76.1,29.43,SSE,160,9.0,9.0,63,0.00,,,0.00,Wunderground v.1.15,2013-06-14 18:15:00,
2013-06-14 13:20:00,90.4,76.1,29.43,WSW,243,8.0,9.0,63,0.00,,,0.00,Wunderground v.1.15,2013-06-14 18:20:00,
2013-06-14 13:30:00,91.0,75.7,29.43,ESE,111,7.0,8.0,61,0.00,,,0.00,Wunderground v.1.15,2013-06-14 18:30:00,
2013-06-14 13:40:00,91.7,76.3,29.42,ESE,112,6.0,9.0,61,0.00,,,0.00,Wunderground v.1.15,2013-06-14 18:40:00,
2013-06-14 13:50:00,92.0,76.1,29.42,SSE,155,7.0,10.0,60,0.00,,,0.00,Wunderground v.1.15,2013-06-14 18:50:00,
2013-06-14 14:05:00,92.5,76.1,29.42,SSW,201,6.0,10.0,59,0.00,,,0.00,Wunderground v.1.15,2013-06-14 19:05:00,
2013-06-14 14:15:00,91.6,75.7,29.42,SW,219,7.0,7.0,60,0.00,,,0.00,Wunderground v.1.15,2013-06-14 19:15:00,
2013-06-14 14:25:00,92.1,76.2,29.41,East,97,6.0,6.0,60,0.00,,,0.00,Wunderground v.1.15,2013-06-14 19:25:00,
2013-06-14 14:35:00,92.5,76.1,29.41,SW,219,7.0,7.0,59,0.00,,,0.00,Wunderground v.1.15,2013-06-14 19:35:00,
2013-06-14 14:45:00,92.7,75.2,29.41,WSW,250,6.0,6.0,57,0.00,,,0.00,Wunderground v.1.15,2013-06-14 19:45:00,
2013-06-14 14:55:00,93.3,76.3,29.41,SW,229,5.0,8.0,58,0.00,,,0.00,Wunderground v.1.15,2013-06-14 19:55:00,
2013-06-14 15:05:00,93.4,75.9,29.40,South,191,6.0,8.0,57,0.00,,,0.00,Wunderground v.1.15,2013-06-14 20:05:00,
2013-06-14 15:15:00,93.8,75.7,29.40,SW,236,6.0,6.0,56,0.00,,,0.00,Wunderground v.1.15,2013-06-14 20:15:00,
2013-06-14 15:25:00,93.8,76.3,29.40,SW,219,5.0,8.0,57,0.00,,,0.00,Wunderground v.1.15,2013-06-14 20:25:00,
2013-06-14 15:35:00,93.7,75.6,29.39,SSW,208,7.0,7.0,56,0.00,,,0.00,Wunderground v.1.15,2013-06-14 20:35:00,
2013-06-14 15:45:00,94.0,76.4,29.39,SE,143,5.0,8.0,57,0.00,,,0.00,Wunderground v.1.15,2013-06-14 20:45:00,
2013-06-14 15:55:00,94.1,76.0,29.39,South,180,6.0,8.0,56,0.00,,,0.00,Wunderground v.1.15,2013-06-14 20:55:00,
2013-06-14 16:05:00,93.9,74.2,29.39,WSW,243,7.0,7.0,53,0.00,,,0.00,Wunderground v.1.15,2013-06-14 21:05:00,
2013-06-14 16:15:00,94.2,75.0,29.39,SW,225,4.0,8.0,54,0.00,,,0.00,Wunderground v.1.15,2013-06-14 21:15:00,
2013-06-14 16:25:00,94.4,74.6,29.39,WSW,250,5.0,5.0,53,0.00,,,0.00,Wunderground v.1.15,2013-06-14 21:25:00,
2013-06-14 16:30:00,94.4,74.6,29.39,SE,143,5.0,8.0,53,0.00,,,0.00,Wunderground v.1.15,2013-06-14 21:30:00,
2013-06-14 16:40:00,94.8,73.3,29.39,SE,139,6.0,8.0,50,0.00,,,0.00,Wunderground v.1.15,2013-06-14 21:40:00,
2013-06-14 16:50:00,94.7,73.8,29.38,SSW,208,6.0,8.0,51,0.00,,,0.00,Wunderground v.1.15,2013-06-14 21:50:00,
2013-06-14 17:00:00,94.5,74.7,29.38,SW,229,6.0,10.0,53,0.00,,,0.00,Wunderground v.1.15,2013-06-14 22:00:00,
2013-06-14 17:15:00,94.2,73.9,29.38,SW,214,7.0,10.0,52,0.00,,,0.00,Wunderground v.1.15,2013-06-14 22:15:00,
2013-06-14 17:25:00,94.3,75.1,29.38,SW,221,6.0,7.0,54,0.00,,,0.00,Wunderground v.1.15,2013-06-14 22:25:00,
2013-06-14 17:35:00,94.2,75.6,29.38,South,169,6.0,10.0,55,0.00,,,0.00,Wunderground v.1.15,2013-06-14 22:35:00,
2013-06-14 17:40:00,94.0,75.4,29.37,SSW,204,6.0,6.0,55,0.00,,,0.00,Wunderground v.1.15,2013-06-14 22:40:00,
2013-06-14 17:50:00,93.9,75.3,29.37,SSW,194,6.0,6.0,55,0.00,,,0.00,Wunderground v.1.15,2013-06-14 22:50:00,
2013-06-14 18:00:00,93.9,75.8,29.37,SSE,150,6.0,6.0,56,0.00,,,0.00,Wunderground v.1.15,2013-06-14 23:00:00,
2013-06-14 18:10:00,93.6,75.5,29.37,SW,219,5.0,5.0,56,0.00,,,0.00,Wunderground v.1.15,2013-06-14 23:10:00,
2013-06-14 18:20:00,93.5,76.0,29.37,SSE,166,5.0,5.0,57,0.00,,,0.00,Wunderground v.1.15,2013-06-14 23:20:00,
2013-06-14 18:25:00,93.6,76.1,29.37,SSE,163,4.0,8.0,57,0.00,,,0.00,Wunderground v.1.15,2013-06-14 23:25:00,
2013-06-14 18:35:00,93.0,76.0,29.37,SE,132,5.0,5.0,58,0.00,,,0.00,Wunderground v.1.15,2013-06-14 23:35:00,
2013-06-14 18:45:00,92.8,75.8,29.36,South,169,5.0,8.0,58,0.00,,,0.00,Wunderground v.1.15,2013-06-14 23:45:00,
2013-06-14 18:55:00,92.6,76.2,29.36,SSE,160,5.0,8.0,59,0.00,,,0.00,Wunderground v.1.15,2013-06-14 23:55:00,
2013-06-14 19:01:00,92.2,76.3,29.36,SE,139,6.0,8.0,60,0.00,,,0.00,Wunderground v.1.15,2013-06-15 00:01:00,
2013-06-14 19:10:00,91.8,75.9,29.36,SSE,147,6.0,9.0,60,0.00,,,0.00,Wunderground v.1.15,2013-06-15 00:10:00,
2013-06-14 19:20:00,91.6,75.7,29.36,South,169,5.0,9.0,60,0.00,,,0.00,Wunderground v.1.15,2013-06-15 00:20:00,
2013-06-14 19:30:00,91.5,76.1,29.36,SE,130,5.0,8.0,61,0.00,,,0.00,Wunderground v.1.15,2013-06-15 00:30:00,
2013-06-14 19:40:00,91.1,76.3,29.37,ESE,106,5.0,8.0,62,0.00,,,0.00,Wunderground v.1.15,2013-06-15 00:40:00,
2013-06-14 19:50:00,90.4,76.1,29.37,SE,131,5.0,8.0,63,0.00,,,0.00,Wunderground v.1.15,2013-06-15 00:50:00,
2013-06-14 20:05:00,89.3,76.0,29.37,SSW,200,4.0,4.0,65,0.00,,,0.00,Wunderground v.1.15,2013-06-15 01:05:00,
2013-06-14 20:15:00,89.0,76.2,29.37,SE,139,3.0,8.0,66,0.00,,,0.00,Wunderground v.1.15,2013-06-15 01:15:00,
2013-06-14 20:20:00,88.6,76.2,29.37,SSE,166,3.0,8.0,67,0.00,,,0.00,Wunderground v.1.15,2013-06-15 01:20:00,
2013-06-14 20:30:00,88.3,75.9,29.37,SE,141,2.0,8.0,67,0.00,,,0.00,Wunderground v.1.15,2013-06-15 01:30:00,
2013-06-14 20:40:00,87.5,76.1,29.37,SE,141,2.0,8.0,69,0.00,,,0.00,Wunderground v.1.15,2013-06-15 01:40:00,
2013-06-14 20:50:00,87.4,76.0,29.38,ESE,117,2.0,8.0,69,0.00,,,0.00,Wunderground v.1.15,2013-06-15 01:50:00,
2013-06-14 20:55:00,87.1,76.1,29.38,SE,129,2.0,2.0,70,0.00,,,0.00,Wunderground v.1.15,2013-06-15 01:55:00,
2013-06-14 21:05:00,86.3,75.8,29.38,SE,124,2.0,2.0,71,0.00,,,0.00,Wunderground v.1.15,2013-06-15 02:05:00,
2013-06-14 21:15:00,86.0,75.5,29.38,SE,126,1.0,8.0,71,0.00,,,0.00,Wunderground v.1.15,2013-06-15 02:15:00,
2013-06-14 21:25:00,85.4,75.8,29.38,SE,126,0.0,8.0,73,0.00,,,0.00,Wunderground v.1.15,2013-06-15 02:25:00,
2013-06-14 21:35:00,84.9,76.1,29.39,SSE,158,1.0,8.0,75,0.00,,,0.00,Wunderground v.1.15,2013-06-15 02:35:00,
2013-06-14 21:45:00,84.7,75.5,29.39,South,170,2.0,2.0,74,0.00,,,0.00,Wunderground v.1.15,2013-06-15 02:45:00,
2013-06-14 21:55:00,85.0,75.8,29.40,SSE,150,1.0,8.0,74,0.00,,,0.00,Wunderground v.1.15,2013-06-15 02:55:00,
2013-06-14 22:01:00,84.7,75.5,29.40,ESE,114,2.0,8.0,74,0.00,,,0.00,Wunderground v.1.15,2013-06-15 03:01:00,
2013-06-14 22:10:00,84.5,75.7,29.40,ESE,122,2.0,8.0,75,0.00,,,0.00,Wunderground v.1.15,2013-06-15 03:10:00,
2013-06-14 22:20:00,84.2,75.8,29.41,SSE,148,1.0,8.0,76,0.00,,,0.00,Wunderground v.1.15,2013-06-15 03:20:00,
2013-06-14 22:25:00,84.1,75.7,29.41,SSE,151,1.0,8.0,76,0.00,,,0.00,Wunderground v.1.15,2013-06-15 03:25:00,
2013-06-14 22:30:00,84.0,75.6,29.41,SE,129,0.0,8.0,76,0.00,,,0.00,Wunderground v.1.15,2013-06-15 03:30:00,
2013-06-14 22:40:00,83.7,75.7,29.41,SE,137,1.0,2.0,77,0.00,,,0.00,Wunderground v.1.15,2013-06-15 03:40:00,
2013-06-14 22:50:00,83.6,76.0,29.42,SE,127,2.0,8.0,78,0.00,,,0.00,Wunderground v.1.15,2013-06-15 03:50:00,
2013-06-14 23:00:00,82.9,75.7,29.42,ESE,122,2.0,2.0,79,0.00,,,0.00,Wunderground v.1.15,2013-06-15 04:00:00,
2013-06-14 23:05:00,82.8,76.0,29.42,ESE,113,1.0,8.0,80,0.00,,,0.00,Wunderground v.1.15,2013-06-15 04:05:00,
2013-06-14 23:10:00,82.6,75.8,29.42,ESE,114,1.0,1.0,80,0.00,,,0.00,Wunderground v.1.15,2013-06-15 04:10:00,
2013-06-14 23:20:00,82.5,76.1,29.42,SSE,152,1.0,8.0,81,0.00,,,0.00,Wunderground v.1.15,2013-06-15 04:20:00,
2013-06-14 23:25:00,82.4,76.0,29.42,SE,124,1.0,8.0,81,0.00,,,0.00,Wunderground v.1.15,2013-06-15 04:25:00,
2013-06-14 23:35:00,82.1,76.1,29.42,East,94,1.0,8.0,82,0.00,,,0.00,Wunderground v.1.15,2013-06-15 04:35:00,
2013-06-14 23:40:00,81.9,76.2,29.42,East,101,1.0,8.0,83,0.00,,,0.00,Wunderground v.1.15,2013-06-15 04:40:00,
2013-06-14 23:50:00,81.8,76.1,29.42,SSE,148,1.0,8.0,83,0.00,,,0.00,Wunderground v.1.15,2013-06-15 04:50:00,